CAPE
0 0 0 0 0 0 0 0 0 0 0 0 0 0 0 0 0 0 0 0 0 0 0 0 0 0 0 3 4 7 5 5 1 2 16 24 27 20 19 51 44 26 21 33
0 0 0 0 0 0 0 0 0 0 0 0 0 0 0 0 0 0 0 0 0 0 0 0 0 0 3 3 3 4 5 5 9 17 15 12 10 9 35 40 14 26 24 24
0 0 0 0 0 0 0 0 0 0 0 0 0 0 0 0 0 0 0 0 0 0 0 0 0 0 2 6 8 10 5 5 2 5 13 5 8 22 22 20 21 26 12 14
0 0 0 0 0 0 0 0 0 0 0 0 0 0 0 0 0 0 0 0 0 0 0 0 0 0 4 5 8 4 5 10 2 3 10 12 21 23 16 15 44 19 13 11
0 0 0 0 0 0 0 0 0 0 0 0 0 0 0 0 0 0 0 0 0 0 0 0 0 2 6 8 5 2 6 10 8 9 8 17 15 13 9 15 27 21 12 12
0 0 0 0 0 0 0 0 0 0 0 0 0 0 0 0 0 0 0 0 0 0 0 0 0 2 7 3 2 3 6 2 3 8 5 11 19 11 11 12 18 15 15 15
0 0 0 0 0 0 0 0 0 0 0 0 0 0 0 0 0 0 0 0 0 0 0 0 0 3 8 4 6 2 6 10 11 5 3 7 9 12 15 13 29 14 8 11
0 0 0 0 0 0 0 0 0 0 0 0 0 0 0 0 0 0 0 0 0 0 0 0 0 6 9 6 4 1 2 7 16 17 9 8 5 8 15 9 27 22 17 13
0 0 0 0 0 0 0 0 0 0 0 0 0 0 0 0 0 0 0 0 0 0 0 0 0 8 1 5 2 2 5 3 7 10 16 3 3 8 10 7 34 22 22 21
0 0 0 0 0 0 0 0 0 0 0 0 0 0 0 0 0 0 0 0 0 0 0 0 0 4 5 3 2 1 4 10 8 12 8 4 3 3 5 9 10 6 3 7
0 0 0 0 0 0 0 0 0 0 0 0 0 0 0 0 0 0 0 0 0 0 0 0 0 0 2 3 1 1 3 6 11 9 5 3 3 2 2 5 1 0 0 2
0 0 0 0 0 0 0 0 0 0 0 0 0 0 0 0 0 0 0 0 0 0 0 0 0 0 1 2 2 1 1 3 5 4 2 1 2 3 5 2 1 1 0 0
0 0 0 0 0 0 0 0 0 0 0 0 0 0 0 0 0 0 0 0 0 0 0 0 1 0 6 1 1 1 1 2 1 2 1 1 3 4 4 1 1 0 0 0
0 0 0 0 0 0 0 0 0 0 0 0 0 0 0 0 0 0 0 0 0 0 0 0 0 5 8 4 1 3 1 1 1 0 0 1 2 4 3 0 1 1 0 0
0 0 0 0 0 0 0 0 0 0 0 0 0 0 0 0 0 0 0 0 0 0 0 0 0 6 8 7 6 2 0 1 1 0 0 0 0 1 4 0 0 0 0 0
0 0 0 0 0 0 0 0 0 0 0 0 0 0 0 0 0 0 0 0 0 0 0 0 2 0 9 12 9 2 1 3 2 2 0 0 0 0 4 6 1 0 2 0
0 0 0 0 0 0 0 0 0 0 0 0 0 0 0 0 0 0 0 0 0 0 0 0 2 2 7 5 9 4 4 4 4 4 0 0 0 0 0 8 14 8 1 1
0 0 0 0 0 0 0 0 0 0 0 0 0 0 0 0 0 0 0 0 0 0 0 0 2 0 4 8 7 0 3 3 3 3 0 0 0 0 6 1 0 0 9 11
0 0 0 0 0 0 0 0 0 0 0 0 0 0 0 0 0 0 0 0 0 0 0 0 0 2 0 6 3 1 4 2 2 3 1 0 0 0 0 2 0 0 0 12
0 0 0 0 0 0 0 0 0 0 0 0 0 0 0 0 0 0 0 0 0 0 0 0 0 1 1 3 5 4 2 1 2 3 1 0 0 0 0 0 7 4 0 1
0 0 0 0 0 0 0 0 0 0 0 0 0 0 0 0 0 0 0 0 0 0 0 0 0 1 2 3 10 3 3 1 2 2 0 0 0 0 0 0 0 5 0 0
0 0 0 0 0 0 0 0 0 0 0 0 0 0 0 0 0 0 0 0 0 0 0 0 0 0 0 2 8 5 6 1 2 1 0 0 0 0 0 0 0 6 4 1
0 0 0 0 0 0 0 0 0 0 0 0 0 0 0 0 0 0 0 0 0 1 0 0 0 0 1 0 4 5 2 0 2 0 0 0 0 0 0 0 0 15 10 4
0 0 0 0 0 0 0 0 0 0 0 0 0 0 0 0 0 0 0 0 0 1 1 0 0 1 2 4 0 1 2 1 1 0 0 0 0 0 0 0 0 3 13 7
0 0 0 0 0 0 0 0 0 0 0 0 0 0 0 0 0 0 0 0 0 0 0 0 0 2 3 3 3 3 1 2 1 0 0 0 0 0 0 0 0 2 5 11
0 0 0 0 0 0 0 0 0 0 0 0 0 0 0 0 0 0 0 0 0 1 0 1 0 1 2 0 5 0 0 2 1 0 0 0 0 0 0 0 0 0 0 3
CIN
0 0 0 0 0 0 0 0 0 0 0 0 0 0 0 0 0 0 0 0 0 0 0 0 0 0 0 0 0 0 0 0 -3 -3 0 0 0 0 0 0 0 0 0 -1
0 0 0 0 0 0 0 0 0 0 0 0 0 0 0 0 0 0 0 0 0 0 0 0 0 0 0 0 0 0 0 0 0 0 0 0 0 0 0 0 -1 0 0 0
0 0 0 0 0 0 0 0 0 0 0 0 0 0 0 0 0 0 0 0 0 0 0 0 0 0 0 0 0 0 0 0 0 0 0 0 0 0 0 0 0 0 0 0
0 0 0 0 0 0 0 0 0 0 0 0 0 0 0 0 0 0 0 0 0 0 0 0 0 0 0 0 0 0 0 0 0 -3 0 0 0 0 0 0 0 0 -1 0
0 0 0 0 0 0 0 0 0 0 0 0 0 0 0 0 0 0 0 0 0 0 0 0 0 0 0 0 0 0 0 0 0 0 0 0 0 -1 0 0 0 0 0 0
0 0 0 0 0 0 0 0 0 0 0 0 0 0 0 0 0 0 0 0 0 0 0 0 0 0 0 0 0 0 0 0 -1 0 0 0 0 0 0 0 0 0 0 0
0 0 0 0 0 0 0 0 0 0 0 0 0 0 0 0 0 0 0 0 0 0 0 0 0 0 0 0 0 0 0 0 0 0 0 0 0 0 0 0 0 0 0 0
0 0 0 0 0 0 0 0 0 0 0 0 0 0 0 0 0 0 0 0 0 0 0 0 0 0 0 0 0 0 0 0 0 0 0 0 0 0 0 0 0 0 0 0
0 0 0 0 0 0 0 0 0 0 0 0 0 0 0 0 0 0 0 0 0 0 0 0 0 0 0 0 0 0 0 -1 0 0 0 0 0 0 0 0 0 0 0 0
0 0 0 0 0 0 0 0 0 0 0 0 0 0 0 0 0 0 0 0 0 0 0 0 0 0 0 0 0 0 0 0 0 0 0 0 0 0 0 0 0 -1 -1 -1
0 0 0 0 0 0 0 0 0 0 0 0 0 0 0 0 0 0 0 0 0 0 0 0 0 0 -1 0 0 0 0 0 0 0 0 0 0 0 0 0 -7 0 0 0
0 0 0 0 0 0 0 0 0 0 0 0 0 0 0 0 0 0 0 0 0 0 0 0 0 0 0 0 0 0 0 0 0 0 0 0 0 0 0 0 0 -19 0 0
0 0 0 0 0 0 0 0 0 0 0 0 0 0 0 0 0 0 0 0 0 0 0 0 0 0 0 0 0 0 0 0 0 0 0 0 0 0 0 0 0 0 0 0
0 0 0 0 0 0 0 0 0 0 0 0 0 0 0 0 0 0 0 0 0 0 0 0 0 0 0 0 0 0 0 0 0 0 0 0 0 0 0 0 0 0 0 0
0 0 0 0 0 0 0 0 0 0 0 0 0 0 0 0 0 0 0 0 0 0 0 0 0 0 0 0 0 0 0 0 0 0 0 0 0 0 0 0 0 0 0 0
0 0 0 0 0 0 0 0 0 0 0 0 0 0 0 0 0 0 0 0 0 0 0 0 0 0 0 0 0 0 0 0 0 0 0 0 0 0 0 0 -6 0 0 0
0 0 0 0 0 0 0 0 0 0 0 0 0 0 0 0 0 0 0 0 0 0 0 0 0 0 0 0 0 0 0 0 0 0 0 0 0 0 0 -4 -2 0 0 0
0 0 0 0 0 0 0 0 0 0 0 0 0 0 0 0 0 0 0 0 0 0 0 0 0 0 -4 0 0 0 0 0 0 0 0 0 0 0 0 0 -4 -4 0 0
0 0 0 0 0 0 0 0 0 0 0 0 0 0 0 0 0 0 0 0 0 0 0 0 0 0 0 0 0 0 0 0 0 0 0 0 0 0 0 -4 0 0 0 0
0 0 0 0 0 0 0 0 0 0 0 0 0 0 0 0 0 0 0 0 0 0 0 0 0 0 0 0 0 0 0 0 0 0 0 0 0 0 0 0 -1 0 0 0
0 0 0 0 0 0 0 0 0 0 0 0 0 0 0 0 0 0 0 0 0 0 0 0 0 0 0 0 0 0 0 0 0 0 0 0 0 0 0 0 0 0 0 0
0 0 0 0 0 0 0 0 0 0 0 0 0 0 0 0 0 0 0 0 0 0 0 0 0 0 0 0 0 0 0 0 0 0 0 0 0 0 0 0 0 0 0 0
0 0 0 0 0 0 0 0 0 0 0 0 0 0 0 0 0 0 0 0 0 0 0 0 0 0 0 0 -2 0 0 0 0 0 0 0 0 0 0 0 0 0 0 0
0 0 0 0 0 0 0 0 0 0 0 0 0 0 0 0 0 0 0 0 0 0 0 0 0 0 -1 -1 0 0 0 0 0 0 0 0 0 0 0 0 0 0 0 0
0 0 0 0 0 0 0 0 0 0 0 0 0 0 0 0 0 0 0 0 0 0 0 0 0 0 0 -4 0 0 0 0 0 0 0 0 0 0 0 0 0 0 0 0
0 0 0 0 0 0 0 0 0 0 0 0 0 0 0 0 0 0 0 0 0 0 0 0 0 0 0 0 -1 0 0 0 0 0 0 0 0 0 0 0 0 0 0 0
Wind_Speed
6 11 5 4 2 3 2 2 3 2 3 6 8 9 5 5 14 17 17 17 19 19 19 19 19 19 19 18 19 18 17 16 14 11 12 12 12 12 12 10 13 12 11 11
6 5 3 4 5 2 2 3 2 3 6 7 7 5 3 3 8 9 15 18 18 20 21 20 20 20 20 20 19 18 18 16 16 11 12 12 12 12 11 11 14 10 14 12
8 3 4 2 6 5 2 1 2 3 5 7 9 2 1 3 4 9 15 13 16 19 22 22 22 20 19 20 19 17 17 17 16 18 12 11 12 10 9 11 11 12 13 12
6 4 3 3 4 2 1 1 2 6 5 1 2 3 2 6 10 13 17 16 18 20 18 20 21 20 17 20 19 18 18 19 16 16 15 19 12 13 12 11 11 11 13 13
1 5 5 5 2 1 2 1 3 4 4 4 3 3 2 5 10 19 18 18 18 19 19 20 21 18 18 17 16 18 19 18 17 17 18 13 15 12 11 10 14 13 11 12
3 1 3 2 3 1 4 3 5 4 2 1 1 1 2 3 10 13 16 17 19 19 19 18 18 17 17 17 17 17 20 18 16 15 19 19 17 17 14 14 9 10 10 10
3 3 4 3 2 2 9 3 2 0 1 2 2 2 0 3 6 9 14 16 17 18 17 18 20 19 18 19 18 17 19 19 18 19 20 19 18 17 16 15 10 14 11 9
2 1 6 7 3 2 4 2 3 4 3 5 2 5 3 5 4 8 11 12 15 17 16 17 18 18 16 19 18 19 20 20 20 19 19 17 18 11 11 13 12 10 10 11
4 0 1 4 2 1 1 6 1 4 1 1 2 2 1 3 9 12 12 13 16 17 17 18 17 17 18 17 17 21 20 18 19 20 16 17 16 16 14 17 14 11 13 12
4 3 1 1 1 6 5 4 1 3 3 5 4 3 2 5 13 13 15 15 16 16 17 17 16 17 15 15 16 19 19 17 18 18 16 14 15 15 15 14 15 15 15 15
3 1 0 1 4 0 3 2 6 5 2 2 4 3 6 3 6 9 12 13 15 17 17 16 16 16 15 15 18 18 18 18 17 17 17 16 15 16 15 14 14 13 16 16
0 4 2 0 1 2 2 2 2 4 2 3 1 8 9 5 5 5 10 11 14 15 15 15 15 16 16 17 17 18 18 18 17 16 16 16 16 16 15 15 16 15 16 17
4 2 2 1 1 2 2 2 4 5 3 5 3 5 5 4 5 7 9 12 13 14 14 14 14 15 14 16 17 17 17 17 17 16 16 16 16 16 16 16 17 17 16 17
3 3 4 5 2 4 3 4 4 3 3 5 8 8 5 7 8 10 9 12 13 14 14 13 13 15 16 14 16 16 16 16 16 16 16 16 16 16 15 15 16 17 17 16
3 3 3 2 1 2 3 5 9 7 4 6 3 8 7 5 4 6 7 10 13 14 14 14 14 14 15 14 15 15 16 16 16 16 15 16 15 15 15 16 16 16 17 17
2 3 1 2 1 2 4 6 8 6 3 9 7 15 4 0 2 3 5 10 12 14 14 14 15 15 15 14 14 15 15 16 16 16 16 15 15 15 15 15 15 15 16 17
3 5 3 3 3 4 6 7 11 5 5 6 6 6 2 3 5 4 6 8 12 13 13 13 14 13 14 14 14 14 15 16 15 15 15 15 14 15 15 13 13 13 14 16
6 4 2 2 3 3 1 2 3 5 5 11 4 3 3 3 4 6 4 6 10 11 11 12 11 11 12 13 14 15 14 14 14 15 15 14 14 13 14 15 15 15 12 14
3 5 3 2 2 6 1 5 7 7 5 9 8 4 3 1 2 2 4 4 7 9 9 9 10 11 10 13 13 13 14 14 14 15 15 14 14 13 12 14 15 14 13 11
5 6 5 3 2 4 2 3 4 4 4 7 7 6 5 2 0 1 3 6 8 9 7 10 11 9 10 12 13 13 14 14 15 15 15 13 12 12 12 11 12 14 13 13
2 3 4 2 4 9 3 7 5 3 4 6 7 5 7 3 3 1 4 5 6 9 8 11 10 9 10 12 12 13 13 14 14 14 12 12 12 11 12 12 10 12 12 13
8 8 4 4 1 6 8 5 7 3 2 6 5 6 6 3 1 2 4 5 7 8 7 10 8 9 9 12 12 12 12 12 13 13 12 12 12 9 9 11 11 10 11 12
2 7 6 10 7 1 12 2 3 4 6 6 7 5 6 5 3 2 4 4 6 8 7 7 7 7 9 10 11 12 13 12 12 12 12 12 12 11 9 9 11 9 10 10
4 3 3 2 2 6 11 3 4 5 5 6 6 6 7 5 4 2 3 4 5 8 6 6 7 8 9 8 11 10 11 12 12 12 12 11 11 12 10 7 7 8 9 9
3 6 5 7 4 0 6 8 9 7 7 8 7 6 7 6 4 3 2 3 4 8 6 5 7 7 8 9 10 11 11 12 11 10 9 10 8 10 10 8 7 7 9 10
8 10 8 8 8 5 4 18 14 13 12 12 10 7 5 6 6 3 1 2 4 6 5 5 6 7 8 9 9 11 12 11 11 9 8 8 7 7 8 8 8 11 11 14
Wind_Direction
21 61 44 317 253 259 223 142 116 99 75 95 134 145 167 31 30 13 2 353 346 343 341 345 347 346 347 351 352 351 341 342 336 334 331 330 328 326 319 317 310 298 299 304
42 59 326 269 351 147 123 114 88 98 65 92 154 143 168 8 29 14 353 344 341 339 343 347 350 352 352 352 351 349 347 342 340 334 331 329 324 321 319 325 323 323 320 310
91 311 311 135 28 41 50 101 146 85 114 67 142 219 285 316 335 350 348 339 343 344 341 345 351 353 352 354 350 349 342 343 343 338 325 327 325 322 322 323 318 330 322 320
78 340 30 56 70 1 95 22 245 150 159 135 265 301 7 329 321 347 343 349 347 345 345 346 349 351 354 352 349 343 344 347 343 335 339 335 329 328 323 321 324 326 324 318
224 12 12 48 9 345 246 334 114 134 105 136 193 269 130 337 330 344 339 342 343 346 346 347 349 347 352 349 344 346 346 344 335 335 343 338 334 325 318 319 330 329 323 320
104 99 60 292 308 56 309 116 67 70 88 270 130 245 146 20 325 325 331 340 343 343 346 345 346 343 355 351 348 347 349 345 343 340 345 342 337 331 328 331 336 334 329 323
19 19 344 29 1 34 35 59 341 357 340 288 115 223 6 183 333 318 326 334 337 341 345 343 347 348 356 351 350 344 346 344 341 347 346 345 342 336 332 333 337 335 332 330
74 20 13 346 67 268 24 50 101 282 311 304 283 238 59 173 299 314 318 325 340 344 346 345 347 347 353 351 351 342 348 347 344 343 344 344 346 344 339 335 340 336 333 330
127 42 71 58 57 332 42 51 179 104 86 284 266 273 138 262 334 333 341 345 345 343 343 346 349 352 356 351 346 346 346 349 345 347 345 348 347 344 341 340 339 338 332 333
186 109 53 79 146 54 75 143 100 35 30 308 289 278 219 338 326 334 341 344 343 344 344 347 352 353 355 351 344 347 348 344 348 349 349 346 345 344 343 342 341 337 335 339
153 85 198 38 26 9 15 64 62 106 38 203 313 290 179 178 307 314 333 333 339 342 344 348 354 354 352 350 351 348 348 349 348 348 349 349 349 348 347 346 342 339 334 341
187 122 112 247 49 80 80 134 119 120 217 59 89 277 167 169 298 305 324 336 340 344 342 347 355 356 357 354 353 350 348 349 348 348 349 352 350 349 350 350 350 345 340 341
183 42 48 254 248 359 203 128 97 94 88 192 165 271 189 251 314 353 340 341 340 343 346 346 352 358 357 357 355 350 347 348 348 350 352 352 352 351 353 354 355 352 347 349
89 111 171 204 188 121 157 183 158 122 137 169 232 290 259 314 350 329 342 340 337 344 347 347 348 357 356 355 355 349 345 349 350 351 354 351 349 351 352 351 355 357 353 355
116 162 189 227 197 180 199 175 179 182 170 187 253 234 283 291 301 306 322 332 343 347 347 346 351 354 355 353 352 345 344 346 348 349 351 349 346 351 356 353 350 1 2 359
2 161 147 269 217 234 265 215 194 203 193 265 265 281 214 207 254 296 325 338 344 344 342 344 349 353 351 351 346 343 343 344 348 349 350 345 349 355 1 353 347 357 7 7
109 132 104 277 351 318 289 213 182 168 190 163 210 232 155 289 325 338 328 342 337 339 337 340 346 349 345 352 341 342 342 344 349 351 352 349 353 356 360 351 347 359 13 12
126 100 70 232 344 348 202 75 173 197 208 208 256 197 188 247 288 291 248 329 333 334 333 339 339 345 338 345 346 340 347 351 354 354 354 352 354 355 359 2 0 0 10 19
48 118 80 115 214 293 197 209 169 177 273 192 215 166 187 250 326 280 222 328 314 322 320 330 335 338 337 348 346 344 352 357 359 358 354 352 352 352 347 3 8 6 359 10
68 62 112 100 128 227 206 164 159 122 286 182 178 157 176 139 314 253 294 326 324 320 329 337 338 338 345 342 348 350 360 1 1 355 349 349 350 351 351 353 4 10 8 6
59 17 153 153 240 283 179 146 159 100 240 162 168 146 158 189 207 253 317 335 324 323 348 349 347 352 353 341 340 356 3 4 353 346 350 355 354 350 0 353 346 11 11 12
170 145 186 90 52 301 155 87 178 168 74 138 142 161 164 190 233 292 313 328 325 334 360 358 354 358 354 350 344 355 0 357 351 348 355 360 356 359 355 358 350 12 15 15
230 185 182 185 215 104 194 84 168 148 145 164 143 161 159 164 199 269 298 326 315 342 2 359 345 335 359 360 345 350 352 356 355 352 359 2 0 5 3 360 1 2 11 18
240 159 195 25 190 208 199 177 160 171 148 145 141 147 160 157 175 221 295 325 328 348 3 358 352 354 345 354 358 357 354 355 357 354 357 360 9 5 7 4 1 7 7 11
174 132 175 266 245 241 232 191 168 156 128 128 137 145 162 148 177 200 277 323 312 359 5 7 348 353 348 343 352 350 356 358 358 354 357 4 7 8 1 10 5 7 11 13
190 177 173 221 187 174 198 172 157 151 157 155 144 139 157 156 172 179 266 299 298 360 360 6 353 349 351 342 348 355 359 3 357 356 1 4 5 9 13 4 4 20 21 21